Home   Weather   London   Past weeks
Flag for United Kingdom

Past Weather in London, England, United Kingdom — Yesterday and Last 2 Weeks

Now
25 °F

Passing clouds.


Feels Like: 25 °F
Forecast: 42 / 28 °F
Wind: No wind

Location: Northolt

Current Time: Jan 24, 2019 at 4:32:42 am

Latest Report: Jan 24, 2019 at 2:50 am


Visibility: 3 mi

Pressure: 29.83 "Hg

Humidity: 100%

Dew Point: 25 °F

Location of LondonLocation

Past Weather in London — Graph

°F

London Temperature Yesterday

Maximum temperature yesterday: 37 °F (at 1:33 pm)
Minimum temperature yesterday: 27 °F (at 8:50 pm)
Average temperature yesterday: 33 °F

High & Low Weather Summary for the Past Weeks

 TemperatureHumidityPressure
High54 °F (Jan 13, 12:50 pm)100% (Jan 10, 10:50 pm)30.45 "Hg (Jan 10, 10:50 pm)
Low25 °F (Jan 21, 12:50 am)53% (Jan 17, 2:50 pm)29.45 "Hg (Jan 22, 7:50 pm)
Average40 °F84%30.00 "Hg
* Reported Jan 9 2:50 am — Jan 24 2:50 am, London. Weather by CustomWeather, © 2019

Note: Actual official high and low records may vary slightly from our data, if they occured in-between our weather recording intervals... More about our weather records

Advertising

London Weather History for the Previous 24 Hours

Scroll right to see more
 ConditionsComfort  
Time TempWeatherWind HumidityBarometerVisibility
2:50 am
Thu, Jan 24
25 °FPassing clouds.No wind100%29.83 "Hg3 mi
1:50 am25 °FPassing clouds.No wind93%29.80 "Hg3 mi
12:50 am27 °FOvercast.1 mph93%29.80 "Hg4 mi
11:50 pm
Wed, Jan 23
27 °FOvercast.1 mph100%29.80 "Hg3 mi
10:50 pm27 °FOvercast.2 mph93%29.77 "Hg2 mi
9:50 pm27 °FOvercast.1 mph100%29.77 "Hg3 mi
8:50 pm27 °FPassing clouds.3 mph100%29.74 "Hg4 mi
7:50 pm30 °FClear.1 mph93%29.74 "Hg10 mi
6:50 pm30 °FClear.1 mph93%29.74 "Hg10 mi
5:50 pm32 °FPassing clouds.2 mph93%29.71 "HgN/A
4:50 pm34 °FPassing clouds.3 mph87%29.71 "HgN/A
3:50 pm36 °FPassing clouds.7 mph81%29.68 "HgN/A
2:50 pm37 °FPassing clouds.8 mph81%29.65 "HgN/A
1:50 pm37 °FPassing clouds.10 mph81%29.62 "HgN/A
1:33 pm37 °FPassing clouds.9 mph81%29.62 "HgN/A
12:50 pm36 °FPartly sunny.8 mph87%29.62 "HgN/A
11:50 am36 °FPartly sunny.8 mph87%29.62 "HgN/A
10:50 am34 °FPartly sunny.8 mph93%29.59 "HgN/A
9:50 am34 °FPartly sunny.8 mph87%29.56 "HgN/A
8:50 am34 °FBroken clouds.5 mph87%29.53 "Hg6 mi
7:50 am34 °FPartly sunny.6 mph93%29.53 "Hg6 mi
6:50 am34 °FPassing clouds.6 mph93%29.50 "HgN/A
5:50 am34 °FLow clouds.9 mph93%29.47 "Hg4 mi
4:50 am34 °FLow clouds.5 mph93%29.47 "Hg4 mi
Weather by CustomWeather, © 2019

See weather overview